Zurück zum Katalog

STARLINK-35748

AktivKommunikationVLEO
NORAD 66206·PAYLOAD·🇺🇸 United States

Gestartet Oct 28, 2025 von Vandenberg Space Force Base

Loading…

Nächste Überflüge (nächste 24 Stunden)

TLE

AktuellSource: CelesTrak SupGP

Epoche: Sep 14, 2026, 20:50 UTC

1 66206C 25244A   26257.86854167 -.00004591  00000+0 -13568-3 0  2577
2 66206  53.1591  67.6770 0001264  81.0266 267.9803 15.34383378    16

Verfolge STARLINK-35748 in Echtzeit mit AllMySat

Download on the App Store